Wind_Speed
18 17 16 15 14 14 13 13 12 11 11 10 9 10 10 10 10 10 10 9 8 8 8 9 9 9 10 10 9 9 9 10 10 10 9 10 10 10 10 9 8 9 9
19 19 17 16 15 15 14 14 14 13 12 11 11 11 11 11 10 11 10 10 9 10 10 10 10 10 11 10 10 10 10 10 11 10 10 11 11 10 10 10 9 9 10
19 19 19 18 17 16 16 16 16 15 14 14 13 13 13 13 12 11 11 11 11 11 11 11 11 11 11 11 11 11 11 12 12 12 11 11 11 11 11 11 10 10 11
21 20 20 20 19 19 17 17 17 17 16 16 15 15 14 14 13 13 12 12 12 12 11 12 12 12 13 13 12 12 12 13 14 14 13 13 12 12 11 12 12 11 12
21 21 21 21 20 20 20 19 19 19 18 17 17 16 16 15 15 15 14 14 13 13 13 13 14 14 14 14 13 12 13 14 14 14 13 13 13 12 11 11 12 12 13
22 21 21 21 22 21 22 21 20 20 20 19 18 17 17 17 17 16 16 15 14 14 14 15 15 15 15 14 14 14 14 14 14 14 13 13 13 13 13 12 13 14 14
24 23 22 22 22 23 23 23 22 22 21 20 19 18 18 18 18 18 17 16 16 15 16 16 16 16 16 16 15 15 15 14 14 14 14 14 14 14 14 14 14 14 15
25 24 23 23 23 24 24 24 24 24 23 21 21 19 19 19 19 19 18 17 17 17 16 17 17 18 17 17 16 16 16 15 15 16 16 15 16 16 16 16 16 16 16
25 24 24 24 25 25 25 25 25 25 24 23 23 21 20 20 21 20 19 19 19 19 18 18 19 19 19 18 18 17 17 17 17 17 17 17 17 17 17 18 18 18 18
27 27 26 26 26 26 25 26 25 24 24 23 23 22 21 21 21 20 19 19 20 20 20 20 20 20 20 19 19 18 18 18 19 19 18 18 19 19 19 19 19 20 20
27 27 27 27 26 25 25 25 25 24 24 23 22 22 22 22 21 20 20 20 21 21 21 21 21 21 21 21 20 20 20 20 20 20 20 20 20 20 20 20 20 20 20
26 27 28 27 26 26 25 25 26 25 24 24 24 23 23 23 23 22 22 21 21 22 21 22 22 22 22 21 21 21 21 21 21 21 21 21 21 22 22 22 21 21 21
26 26 27 28 28 27 26 26 26 26 26 25 25 24 24 25 24 24 24 22 22 23 23 23 23 23 23 23 23 22 22 22 22 22 22 22 22 22 22 22 22 23 23
26 27 27 27 28 28 28 28 27 27 26 26 26 25 26 26 26 25 24 24 24 23 24 24 24 24 24 23 23 23 23 23 23 22 22 22 22 22 22 23 23 23 23
28 28 28 28 29 29 29 29 27 27 27 28 27 27 26 26 26 26 25 25 25 24 25 25 25 24 23 23 23 23 23 23 23 22 22 23 22 23 23 23 23 23 23
30 29 30 30 30 30 29 28 28 27 27 28 27 28 28 27 26 25 25 24 25 25 26 25 24 24 23 23 23 23 23 23 23 23 23 23 23 23 23 24 24 23 24
30 30 31 30 30 30 29 29 29 28 28 28 28 29 28 28 27 27 26 25 24 24 25 25 24 23 23 24 24 23 24 23 23 23 23 23 23 23 23 23 23 24 25
32 31 31 31 31 30 30 31 29 29 30 29 29 29 29 29 29 29 27 27 25 25 25 24 24 23 23 23 24 24 24 24 24 23 23 23 23 23 24 23 24 24 24
30 30 30 29 30 31 31 31 30 30 30 30 29 30 30 29 29 28 26 26 26 25 25 25 25 24 24 24 24 24 24 24 25 24 24 24 23 23 24 23 23 24 25
29 30 31 30 29 29 29 29 29 28 29 29 30 30 30 29 29 29 28 28 27 26 27 27 26 25 25 25 25 25 25 24 25 25 25 24 24 24 24 24 24 25 25
28 29 30 30 29 29 29 28 28 28 28 28 28 29 29 28 28 28 29 29 28 28 28 28 27 26 26 27 26 26 26 25 25 25 25 25 25 25 25 25 25 26 26
27 26 27 28 28 27 27 27 27 27 28 28 28 27 28 28 28 29 29 29 29 29 30 29 28 28 28 27 27 28 27 26 25 26 27 27 26 26 26 26 26 26 26
26 26 26 26 26 26 26 26 27 27 26 27 28 28 28 29 29 29 30 30 30 30 31 30 29 28 28 28 29 27 27 27 27 27 27 28 28 27 27 27 27 26 25
24 25 25 26 25 24 24 25 26 27 27 26 27 28 28 29 29 29 30 30 31 31 31 30 29 29 29 29 28 28 28 28 28 28 27 28 28 28 28 28 28 28 27
23 23 23 23 23 23 24 25 26 27 28 28 28 28 29 29 29 29 30 30 31 31 30 30 30 29 29 29 28 28 29 28 28 27 27 28 28 28 29 30 29 29 29
21 22 22 22 22 23 23 25 26 27 28 28 28 28 28 28 28 28 29 29 30 30 29 29 29 30 30 30 29 29 29 28 28 28 28 29 29 30 30 30 30 30 30
Wind_Direction
274 276 278 279 279 276 273 275 278 279 281 284 287 292 299 297 296 301 307 306 307 308 308 306 305 303 303 306 308 302 299 297 296 295 293 295 294 292 291 285 280 276 270
272 274 276 276 277 275 274 270 271 273 278 282 283 285 290 291 288 294 298 298 301 302 303 300 301 302 301 303 303 300 301 302 303 299 295 296 294 295 294 287 277 274 275
269 271 271 274 274 272 272 269 268 270 274 278 281 280 281 283 279 284 287 288 292 295 296 297 296 298 300 302 300 296 298 301 301 297 293 296 296 291 292 290 280 273 275
270 271 270 270 270 269 270 268 268 270 270 273 275 276 274 276 277 280 285 285 287 289 290 294 294 295 296 297 296 294 296 298 299 296 292 292 293 289 287 285 282 278 276
268 271 270 267 269 267 267 266 267 268 268 268 271 273 272 272 275 278 282 282 282 284 287 290 292 294 293 292 292 292 295 297 298 297 296 295 295 292 288 284 282 280 278
264 266 267 267 267 265 264 264 265 265 266 266 267 270 272 271 272 276 280 279 279 280 283 286 290 292 292 290 290 291 293 295 296 297 296 293 293 290 286 282 281 281 281
263 262 263 264 265 263 264 263 264 265 264 262 264 266 269 269 272 274 277 276 275 275 279 282 286 288 290 289 287 288 290 291 292 293 292 291 290 287 283 282 280 280 281
263 260 260 261 261 262 263 265 264 263 262 260 261 263 267 269 273 274 274 272 271 272 276 280 284 285 286 287 286 284 286 288 290 291 290 289 288 285 283 281 279 277 278
263 260 260 259 257 258 260 262 263 263 261 260 259 261 264 266 269 271 272 271 270 270 274 277 280 281 283 283 285 284 284 286 288 289 288 287 287 285 284 282 280 278 275
260 260 260 258 257 258 258 260 263 263 260 259 259 259 262 265 266 267 268 269 270 270 271 273 277 278 280 281 281 282 284 287 287 288 289 287 286 285 284 282 281 280 277
259 258 257 255 256 256 258 261 261 260 256 256 258 258 261 264 264 264 265 268 270 269 269 271 274 276 278 278 279 280 281 283 285 285 287 288 286 284 284 283 283 282 281
262 260 258 256 260 261 261 260 258 255 255 257 260 260 260 261 263 264 266 267 268 269 268 269 272 274 277 279 279 279 281 283 284 285 285 286 286 284 283 283 284 284 283
263 262 262 260 262 261 261 261 258 254 255 258 261 260 259 261 263 264 265 266 266 268 267 267 270 272 275 277 278 278 280 282 283 284 284 284 285 283 283 283 284 283 283
263 265 264 262 260 257 259 260 260 257 257 258 260 259 260 262 264 263 262 264 265 266 266 267 269 271 273 274 275 277 279 280 282 282 281 283 284 284 284 283 283 283 282
264 265 265 262 260 256 256 260 260 259 257 255 257 259 261 261 263 263 263 263 262 262 263 265 268 270 271 272 273 276 277 278 281 281 281 282 282 284 285 283 283 283 282
265 265 265 264 261 256 255 258 258 257 255 255 256 257 260 260 260 262 263 263 263 263 265 266 268 269 270 271 272 274 276 278 281 283 282 282 282 284 285 283 282 282 282
266 266 265 264 262 258 256 257 256 256 255 255 255 255 258 260 261 261 262 263 264 264 266 265 267 268 269 271 273 275 276 278 280 282 282 283 282 282 284 282 280 281 281
266 266 265 263 258 255 255 256 257 255 255 255 254 254 257 258 259 260 262 263 263 265 265 264 265 267 269 272 274 275 276 278 280 282 283 282 281 282 283 282 281 281 281
264 265 263 263 260 258 258 256 256 254 254 254 254 253 255 257 258 258 261 261 260 263 264 264 265 267 270 272 274 276 276 277 278 280 283 281 281 283 284 283 282 282 283
266 265 265 265 263 260 255 254 255 254 254 254 252 252 253 255 258 260 260 260 259 260 263 264 265 267 269 271 273 275 275 276 278 280 281 281 280 281 283 283 284 284 284
267 267 265 263 263 259 255 254 254 252 253 254 254 254 253 254 255 258 260 259 259 259 261 262 264 265 267 270 272 273 275 275 276 277 279 280 280 279 280 281 282 284 284
269 268 264 263 263 258 256 254 253 252 251 251 253 253 252 253 255 257 260 260 259 258 260 261 262 264 267 270 270 274 273 273 275 277 278 278 277 278 279 280 282 283 284
271 269 267 265 263 261 258 255 253 252 252 251 252 252 252 254 256 258 260 260 259 260 261 260 262 263 266 269 272 273 272 272 275 277 277 277 277 278 279 281 282 283 284
272 270 268 267 265 263 260 257 253 252 252 253 254 254 254 255 257 258 259 260 259 260 261 260 260 262 266 269 271 271 272 273 275 276 277 278 278 279 280 281 283 283 283
273 270 269 267 263 261 259 258 256 255 254 254 256 256 255 257 258 259 260 261 262 261 262 260 259 263 267 268 269 271 273 273 274 276 277 278 278 279 279 281 282 282 282
272 271 269 267 264 261 260 259 257 257 256 256 256 256 256 257 258 260 262 264 265 263 263 262 261 263 266 267 268 271 272 273 275 275 275 276 277 278 279 280 280 281 281
Height
5871 5871 5871 5871 5872 5872 5872 5872 5871 5871 5871 5870 5870 5870 5870 5869 5869 5868 5867 5866 5866 5865 5864 5864 5863 5863 5863 5862 5861 5861 5860 5859 5858 5857 5857 5856 5855 5854 5853 5853 5852 5852 5852
5867 5867 5867 5867 5868 5868 5869 5869 5868 5868 5868 5868 5868 5867 5867 5867 5867 5866 5865 5865 5864 5863 5862 5862 5861 5861 5861 5860 5859 5859 5858 5857 5856 5855 5854 5854 5853 5852 5851 5851 5850 5850 5850
5862 5863 5863 5863 5863 5864 5864 5864 5865 5865 5865 5865 5865 5864 5864 5864 5864 5863 5863 5862 5862 5861 5861 5860 5859 5859 5858 5858 5857 5856 5856 5855 5854 5853 5852 5851 5850 5849 5849 5848 5848 5847 5847
5857 5858 5858 5858 5859 5859 5859 5860 5861 5860 5860 5861 5861 5861 5861 5861 5860 5860 5860 5860 5859 5859 5858 5858 5857 5856 5856 5855 5854 5854 5853 5852 5851 5850 5849 5849 5848 5847 5846 5846 5845 5845 5845
5851 5852 5853 5853 5853 5854 5854 5855 5855 5856 5856 5857 5857 5857 5857 5857 5857 5857 5857 5856 5856 5856 5855 5855 5854 5854 5853 5852 5851 5851 5850 5849 5848 5847 5846 5845 5845 5844 5844 5843 5842 5842 5841
5845 5846 5846 5847 5848 5848 5849 5849 5850 5851 5852 5852 5852 5852 5852 5852 5853 5853 5853 5853 5852 5852 5852 5851 5851 5850 5849 5849 5848 5847 5847 5846 5845 5844 5843 5842 5842 5841 5840 5840 5839 5839 5838
5839 5840 5840 5841 5842 5842 5843 5843 5844 5845 5846 5847 5847 5848 5848 5848 5848 5848 5848 5848 5848 5848 5848 5848 5847 5846 5846 5845 5844 5844 5843 5843 5842 5841 5840 5839 5838 5838 5837 5837 5836 5836 5835
5832 5833 5834 5834 5835 5836 5836 5837 5838 5839 5840 5841 5842 5842 5843 5843 5843 5843 5843 5843 5844 5844 5844 5843 5843 5842 5842 5841 5841 5840 5839 5839 5838 5837 5836 5835 5834 5833 5833 5832 5832 5832 5831
5825 5826 5827 5827 5828 5829 5830 5830 5831 5832 5833 5835 5836 5837 5837 5838 5838 5838 5838 5838 5839 5839 5839 5839 5838 5838 5837 5837 5836 5836 5835 5834 5833 5833 5832 5831 5830 5829 5828 5827 5827 5827 5827
5818 5818 5819 5820 5821 5822 5823 5823 5824 5824 5826 5827 5829 5831 5831 5832 5832 5832 5832 5832 5833 5833 5833 5833 5833 5833 5832 5832 5831 5831 5830 5830 5829 5828 5827 5826 5825 5824 5823 5822 5822 5821 5821
5810 5810 5812 5813 5814 5815 5816 5816 5817 5817 5819 5821 5822 5824 5825 5825 5825 5825 5826 5826 5826 5827 5827 5828 5827 5827 5827 5826 5826 5826 5825 5824 5823 5823 5822 5821 5820 5819 5817 5816 5816 5815 5815
5802 5803 5804 5805 5806 5807 5808 5809 5810 5811 5813 5814 5815 5816 5818 5818 5818 5818 5819 5819 5820 5821 5821 5821 5821 5821 5821 5820 5820 5820 5819 5819 5818 5817 5816 5815 5814 5813 5812 5811 5810 5809 5809
5794 5795 5796 5797 5798 5799 5801 5801 5802 5804 5806 5807 5809 5810 5811 5811 5811 5812 5812 5812 5813 5814 5814 5815 5815 5815 5815 5814 5814 5814 5813 5813 5812 5811 5810 5809 5808 5807 5806 5805 5804 5803 5802
5786 5787 5788 5789 5791 5792 5793 5795 5795 5796 5797 5800 5801 5802 5803 5804 5804 5804 5805 5806 5806 5807 5808 5808 5808 5808 5808 5808 5808 5807 5807 5806 5806 5805 5804 5803 5802 5801 5800 5799 5797 5796 5796
5778 5779 5780 5781 5782 5784 5785 5787 5788 5789 5790 5792 5794 5795 5796 5796 5797 5797 5798 5798 5799 5800 5800 5800 5801 5801 5801 5801 5801 5801 5801 5800 5799 5798 5797 5796 5795 5794 5793 5792 5791 5790 5789
5769 5770 5771 5772 5773 5775 5776 5778 5779 5781 5783 5784 5786 5787 5788 5789 5789 5790 5790 5791 5792 5793 5793 5793 5794 5794 5794 5795 5794 5794 5794 5793 5792 5791 5790 5789 5788 5787 5786 5785 5784 5783 5782
5760 5760 5761 5762 5763 5765 5767 5769 5770 5772 5774 5776 5777 5779 5780 5781 5782 5782 5782 5783 5784 5785 5786 5787 5787 5787 5787 5788 5788 5787 5787 5786 5786 5785 5784 5783 5782 5781 5780 5778 5777 5776 5775
5750 5750 5751 5753 5754 5756 5758 5759 5761 5763 5765 5767 5769 5771 5772 5773 5774 5774 5774 5776 5777 5778 5778 5779 5780 5780 5781 5781 5781 5780 5780 5780 5779 5778 5777 5776 5775 5775 5773 5772 5771 5770 5769
5741 5741 5742 5743 5744 5746 5748 5750 5752 5754 5756 5758 5760 5762 5763 5765 5766 5766 5767 5768 5769 5770 5771 5772 5773 5773 5774 5774 5774 5773 5773 5772 5772 5771 5770 5769 5769 5768 5767 5766 5764 5763 5762
5732 5732 5733 5734 5735 5737 5738 5741 5743 5745 5747 5749 5751 5753 5754 5756 5757 5758 5760 5761 5762 5763 5764 5765 5765 5766 5767 5767 5767 5766 5766 5765 5765 5764 5763 5763 5762 5761 5760 5759 5758 5757 5755
5723 5724 5724 5725 5726 5727 5729 5731 5733 5735 5737 5740 5742 5743 5745 5747 5749 5750 5751 5752 5754 5755 5756 5757 5758 5758 5759 5759 5759 5758 5758 5758 5757 5757 5756 5755 5755 5754 5753 5752 5751 5750 5748
5715 5715 5715 5716 5717 5719 5720 5722 5724 5726 5728 5731 5733 5734 5737 5739 5740 5741 5742 5744 5745 5747 5748 5749 5750 5751 5751 5751 5751 5750 5750 5750 5750 5749 5749 5748 5747 5747 5746 5745 5744 5742 5741
5708 5707 5708 5708 5710 5711 5712 5714 5716 5718 5720 5722 5724 5726 5728 5730 5731 5733 5734 5736 5737 5738 5739 5740 5742 5743 5743 5743 5742 5742 5742 5742 5742 5741 5741 5740 5739 5739 5738 5737 5736 5735 5734
5700 5700 5701 5701 5702 5703 5705 5707 5709 5710 5712 5715 5717 5719 5720 5722 5724 5725 5726 5727 5729 5730 5731 5732 5733 5734 5735 5734 5734 5733 5733 5733 5733 5733 5732 5732 5731 5731 5730 5729 5728 5727 5726
5694 5694 5694 5695 5696 5696 5698 5699 5701 5703 5705 5707 5709 5711 5712 5714 5716 5717 5718 5719 5720 5721 5723 5724 5725 5725 5726 5727 5726 5726 5726 5725 5725 5724 5724 5723 5723 5723 5722 5721 5720 5719 5717
5688 5688 5688 5688 5689 5690 5691 5692 5693 5695 5697 5699 5701 5703 5704 5706 5707 5708 5710 5710 5712 5713 5714 5714 5716 5717 5718 5717 5717 5717 5717 5716 5716 5716 5715 5715 5714 5714 5713 5712 5711 5709 5708